HI HI AE C7 88 55 00 D4 EA 2D 09 03 76 3D 56 5D 8D 8B 98 67 87 86 88 87 82 
HI HI AE 07 88 55 00 D4 EA 2D 09 03 6D 3A 5F 58 8F 8D 9A 6E 87 86 88 87 82 
HI HI AE C7 88 55 00 D4 EA 2D 09 04 63 38 66 5F 90 8E B0 70 87 86 88 87 82 
HI HI AE C7 88 55 00 D4 EA 2D 09 03 5B 3B 70 5F 91 8E B0 5F 87 86 88 87 82 
HI HI AE C7 88 55 00 D4 EA 2D 08 03 53 41 75 5F 90 8E B0 75 87 86 88 87 82 
HI HI AE C7 88 55 00 D4 EA 2D 09 03 4D 45 7A 5F 90 8E B0 84 87 86 88 87 82 
HI HI AE C7 88 55 00 D4 EA 2D 09 13 4A 4B 79 5F 90 8E B0 61 87 86 88 87 82 
HI HI AE C7 88 55 00 D4 EA 2D 09 04 48 50 78 5F 90 8E B0 62 87 86 88 87 82 
HI HI AE C7 88 55 00 D4 EA 2D 09 04 47 53 71 5F 91 8E B0 74 87 86 88 87 82 
HI HI AE C7 88 55 00 D4 EA 2D 09 04 4A 57 69 5F 90 8E B0 81 87 86 88 87 82 
HI HI AE C7 88 55 00 D4 EA 2D 09 04 55 5F 56 5F 90 8E B0 82 87 76 88 87 82 
HI HI AE C7 88 55 00 D4 EA 2D 09 04 4F 54 6B 5F 90 8E B0 77 87 86 88 87 82  
 
------------------------ FO-29の軌道要素 ------------------------------        
 
  ■ 軌道要素1:「jamsat−keps:1082」より         
          SB KEPS @ AMSAT  $ORB02066.N
          2Line Orbital Elements 02066.AMSAT

HR AMSAT ORBITAL ELEMENTS FOR AMATEUR SATELLITES IN NASA FORMAT
FROM WA5QGD FORT WORTH,TX March 7, 2002
SEND SUBSCRIBE/UNSUBSCRIBE TO majordomo@amsat.org ONLY
BID: ORB02066.N

 DECODE 2-LINE ELSETS WITH THE FOLLOWING KEY:
 1 AAAAAU 00  0  0 BBBBB.BBBBBBBB  .CCCCCCCC  00000-0  00000-0 0  DDDZ
 2 AAAAA EEE.EEEE FFF.FFFF GGGGGGG HHH.HHHH III.IIII JJ.JJJJJJJJKKKKKZ
 KEY: A-CATALOGNUM B-EPOCHTIME C-DECAY D-ELSETNUM E-INCLINATION F-RAAN
 G-ECCENTRICITY H-ARGPERIGEE I-MNANOM J-MNMOTION K-ORBITNUM Z-CHECKSUM

FO-29
1 24278U 96046B   02066.05557693  .00000039  00000-0  73627-4 0  4820
2 24278  98.5148 260.1815 0351634  40.3336 322.3324 13.52827686274183

 ■ 軌道要素2:「jamsat−keps:1083」より
        SB KEPS @ AMSAT  $ORB02066.O
        Orbital Elements  02066.OSCAR

HR AMSAT ORBITAL ELEMENTS FOR OSCAR SATELLITES
FROM WA5QGD FORT WORTH,TX March 7, 2002
SEND SUBSCRIBE/UNSUBSCRIBE TO majordomo@amsat.org ONLY
BID: ORB02066.O
TO ALL RADIO AMATEURS BT

Satellite: FO-29
Catalog number: 24278
Epoch time:      02066.05557693
Element set:     482
Inclination:       98.5148 deg
RA of node:       260.1815 deg
Eccentricity:    0.0351634
Arg of perigee:    40.3336 deg
Mean anomaly:     322.3324 deg
Mean motion:   13.52827686 rev/day
Decay rate:        3.9e-07 rev/day^2
Epoch rev:           27418
Checksum:              313

-------------------  FO-29(JAS-2)のテレメトリに関する情報  ---------------------- 
 
2)上記2002年3月8日(金)のテレメトリの最終行を分析しておきます.

AS27438C  08Mar2002
18:52-19:09(JST)
AOS   MEL  LOS  Elev
 43   100  193  84.1
Freq. 435.803-.785MHz

HI HI AE 07 88 55 00 D4 0C 40 09 02 68 8D 64 56 91 8E B0 78 88 86 88 89 83 
 
テレメトリ   内 容         換算算値 単 位
3C	磁気センサーZ軸=	50980.4	[nT]
3D	磁気センサX軸	=	69117.6	[nT]
4A	太陽電池発生電流=	 980.4	[mA]
4B	B充放電電流	=	 -314.4	[mA]
4C	B端子電圧	=	   15.6	[V]
4D	B中間端子電圧	=	    6.8	[V]
5A	バス電圧	=	   17.3	[V]
5B	JTA送信電力	=	  681.9	[mW]
5C 	構体温度1	=	   29.1	[℃]
5D	構体温度2	=	   29.8	[℃]
6A	構体温度3	=	   29.1	[℃]
6B	構体温度4	=	   28.7	[℃]
6C	Bセル温度	=	   31.0	[℃]

 ========================== FO-29(ふじ3号)のテレメトリ分析、QSO情報等 =====================
   
 3)[jamsat-bb:

 ===============================================================================
 
 4)JARL のホームページに運用予定が記載されていましたのでご紹介します.
       ( http://www.jarl.or.jp/Japanese/3_Fuji/new/uy.htm )
       
        ふじ3号(JAS−2)の運用          

       *** 運用予定について ***

  平成13年      平成14年
 12月4日(火) 〜 3月31日(日)アナログ系運用

  *なお,運用予定は都合により,変更することがありますので,
   あらかじめご了承願います。

 照会先 : lab@jarl.or.jp

 最新の情報はテレホンサービス(03−3942−1000)をお聞きください。  
 以後の運用につきましては平成14年4月上旬にお知らせいたします 
     
-----------------------    FO−20(JAS-1b)道要素   -------------------------
  
  ■ 軌道要素1 :出典はFO-29「ふじ3号」に同じ.
  
FO-20
1 20480U 90013C   02066.60675163 -.00000005  00000-0  52478-4 0  3816
2 20480  99.0274  90.3691 0540838  72.4942 293.4497 12.83310878565882
 
  ■ 軌道要素2 :出典はFO−29「ふじ3号」に同じ.
               
Satellite: FO-20
Catalog number: 20480
Epoch time:      02066.60675163
Element set:     381
Inclination:       99.0274 deg
RA of node:        90.3691 deg
Eccentricity:    0.0540838
Arg of perigee:    72.4942 deg
Mean anomaly:     293.4497 deg
Mean motion:   12.83310878 rev/day
Decay rate:       -5.0e-08 rev/day^2
Epoch rev:           56588
Checksum:              320

-------------------------------------------------------------------------------- 
         ■ ふじ2号/FO−20/JAS-1b ■      
            
          「ふじ2号」 現況                                                                                  
             
   JAS-1b(ふじ2号)のCWテレメトリ信号に,1997年10月12日12時(JST)の
 日本上空通過時,3桁の数字が繰り返されるはずが3個の長音の繰り返しとなっているという
 異常が発見されました。この不具合は次の通過時からは回復していましたが13日15時20分の
 通過時に再び観測されました。現在はA0の送信が続いています。衛星のアナログ系中継モード
 動作は異常が無く,正常時のテレメトリ内容からは衛星の動作に異常は認められません。従って,
 直ちに衛星のミッションに影響することは無いと予想されますので,当面はアナログ系中継
 モードを継続します。衛星は既に打ち上げてから7年8ヶ月を経ておりますので,今後は監視を
 強化する予定です。アマチュア各位のレポートをお待ちします。
 -------------------------------------------------------------------------------- 
  1997年10月14日 00時35分 確認のテレメトリ音 151 KB (A0) 
  1997年10月14日 11時10分 確認のテレメトリ音 216 KB (異常キーイング) 

  以上 JARLのホ−ムページの http://www.jarl.or.jp/Japanese/3_Fuji/new/fuji.htm

===================== FO-20 ふじ2号 のテレメトリ観測結果 ====================

  3月8日(金)18:18(JST)の観測結果ではテレメトリは、以前観測した単一周波数の
正弦波がドップラー効果で周波数がずれていくのみの状態でした。
                                         
   =============   JAS-2 (ふじ3号)と現在までの情報   ===========
  
  A.電話によるふじ3号の運用情報
      社団法人日本アマチュア連盟によるサービス
           TEL .   03− 3942 − 1000
  B.アマチュア無線FAXサービス
      JARLによるふじ3号の軌道情報(オービットカレンダー)
         FAX No.  03− 3233 −0055
  C.WWWブラウザで情報を簡単に見れる人のためにJAS−2
     ふじ3号の衛星としての運用されるまでの名前)の概要、打ち上げ
     までの状況、運用中における状況を説明したホームページを紹介し
     ておきます.

     社団法人日本アマチュア無線連盟(JARL)のホームページ

          http://www.jarl.or.jp/Japanese/3_Fuji/jasmenu.htm
 
     宇宙開発事業団(NASDA)ホームページ 
          http://www.nasda.go.jp/
         打上げ衛星 :地球観測プラットフォーム技術衛星(ADEOS) 
                       アマチュア衛星3号(JAS-2)
          http://spaceboy.nasda.go.jp/note/eisei/j/Eis15h_j.html#Eis15h_01_j
     http://spaceboy.nasda.go.jp/note/eisei/j/Eis15i_j.html        

  D.JAMSATによる軌道情報の活用
        JAMSATのホームページまたはjamsat−kepsの軌道要素より
      衛星の軌道情報を得る.
     JAMSATホームページ
               URL    http://www.jamsat.or.jp
       上記ホームページでは各地で行われるアマチュア通信衛星に関する
      ミューティングのお知らせや世界のアマチュア衛星に関する情報が
      満載されています.

 ========================================================================  
     JAMSATのメンバーのご協力によりJH6MME(高山 秀造)が
    執筆・編集を担当しております.ご指摘の意見、疑問やこのようにしたら
    というアイデアがありましたら小さなことでもかまいませんので気軽に下
    記アドレスまでご連絡ください.jamsat−newsからjas2
    infoへの転載をJH4PHW局坂井さんに担当して頂いております.  
                  E-mail : jh6mme@jamsat.or.jp : jh4phw@jamsat.or.jp
 ===============================   END  ===============================